Location: Bishopstone
(51.0167°N, 1.9000°W)
Time: 01:38:13
(UTC+00:00)

ERBS - Pass Details

Date: 16 September 2019
Orbit: 418 x 425 km, 57.0° (Epoch: 13 October)

Event Time Altitude Azimuth Distance (km) Brightness Sun altitude
Rises 19:07:34 0° 289° (WNW) 2,391 8.6 -8.2°
Reaches altitude 10° 19:09:51 10° 301° (WNW) 1,525 6.5 -8.5°
Maximum altitude 19:12:53 29° 3° (N) 821 3.8 -9.0°
Drops below altitude 10° 19:15:54 10° 66° (ENE) 1,524 4.6 -9.4°
Enters shadow 19:16:12 - 68° (ENE) 1,628 4.8 -9.5°
